Location: ????????
(55.7667°N, 37.4833°E)
Time: 18:22:40
(UTC+00:00)

Daily predictions for brighter satellites

Satellite Brightness Start Highest point End
(mag) Time Altitude Azimuth Time Altitude Azimuth Time Altitude Azimuth
SPOT 3 Rocket 3.6 18:23:35 10° SSE 18:28:42 72° ENE 18:33:50 10° NNW
Cosmos 1933 3.3 18:25:59 10° SSW 18:29:52 86° WNW 18:33:45 10° NNE
NOSS 2-3 (C) 3.8 18:26:59 10° WSW 18:30:34 66° NNW 18:34:53 10° NE
ERS-1 Rocket 3.7 18:27:45 10° S 18:32:39 53° W 18:37:35 10° NNW
Okean-O 3.5 18:28:47 10° S 18:33:02 48° W 18:37:18 10° NNW
NOSS 3-1 (C) 3.8 18:33:46 10° S 18:38:05 32° ESE 18:43:10 10° ENE
Cosmos 1743 3.9 18:39:29 10° NNW 18:42:38 35° W 18:45:46 10° SSW
Cosmos 2333 Rocket 3.9 18:38:59 10° NNW 18:43:52 27° NNE 18:48:42 10° E
Spot 2 Rocket 3.8 18:39:10 10° S 18:44:10 65° WSW 18:49:13 10° NNW
ISS -2.8 18:44:15 10° W 18:47:17 32° SSW 18:50:19 10° SE
Lacrosse 4 Rocket 3.2 18:44:08 10° WSW 18:47:49 35° NW 18:51:34 10° NNE
ARIANE 6 FM1 Upper Stage 2.7 18:45:20 10° SSW 18:49:13 50° SE 18:53:10 10° ENE
IKONOS-2 4.4 18:45:10 10° NNE 18:49:19 79° ESE 18:53:26 10° SSW
Cosmos 1821 Rocket 4.3 18:43:40 10° N 18:49:43 56° ENE 18:55:41 10° SSE
Cosmos 1833 Rocket 2.8 18:44:34 10° SSW 18:50:06 59° ESE 18:55:40 10° NE
Cosmos 2218 Rocket 4.1 18:47:58 10° N 18:54:24 82° ENE 19:00:44 10° SSE
Cosmos 1356 Rocket 3.7 18:53:56 10° S 18:57:55 50° E 19:01:54 10° NNE
Cosmos 2219 Rocket 4.3 18:55:43 10° NNW 19:00:06 22° NNE 19:04:29 10° ENE
Cosmos 1733 3.6 18:57:10 10° NNW 19:00:08 44° W 19:03:05 10° S
Cosmos 158 Rocket 4.1 18:55:40 10° SSW 19:01:00 85° ESE 19:06:26 10° NNE
NOSS 3-1 (A) 4.1 19:03:50 10° S 19:07:48 25° ESE 19:12:24 10° ENE
USA 234 3.4 19:01:46 10° ENE 19:08:10 54° SE 19:14:34 10° SW
Cosmos 2058 Rocket 4.0 19:04:11 10° SSW 19:08:32 50° WNW 19:12:54 10° N
Helios 1A 4.4 19:06:17 10° N 19:10:05 39° WNW 19:13:50 10° SW
Cosmos 1980 Rocket 2.3 19:04:50 10° NW 19:10:27 77° WSW 19:15:43 12° SSE
Cosmos 1805 3.1 19:10:39 10° N 19:14:06 60° ENE 19:17:00 14° SSE
Cosmos 1812 Rocket 3.5 19:12:26 10° S 19:16:43 68° E 19:21:01 10° NNE
Terra 3.7 19:14:16 10° SSW 19:18:12 26° W 19:22:08 10° NW
SWARM A 4.2 19:15:05 10° S 19:18:28 89° ESE 19:21:53 10° N
Meteor 1-26 Rocket 4.5 19:14:07 10° SSW 19:20:02 85° WNW 19:26:07 10° NNE
Cosmos 2181 Rocket 4.1 19:14:41 10° S 19:20:55 70° E 19:27:18 10° NNE
SL-16 R/B 3.0 19:16:01 10° NNW 19:21:31 47° NE 19:26:59 10° ESE
Cosmos 2208 Rocket 4.1 19:16:41 10° S 19:21:58 61° ESE 19:27:13 10° NNE
Meteor 1-11 Rocket 3.9 19:18:09 10° N 19:23:38 60° ENE 19:28:28 13° SSE
ATLAS CENTAUR R/B 1.1 19:20:03 10° SW 19:23:48 89° NW 19:27:41 10° NE
Cosmos 1315 Rocket 2.8 19:20:23 10° S 19:24:13 63° E 19:28:05 10° NNE
SL-24 R/B 4.1 19:21:55 10° NNE 19:26:13 67° ESE 19:30:38 10° S
Cosmos 2344 4.0 19:19:13 10° WSW 19:26:28 66° NNW 19:34:13 10° ENE
Cosmos 2366 rocket 4.5 19:23:25 10° NNW 19:29:41 60° W 19:35:53 10° S
DELTA 2 DEB (DPAF) 4.1 19:26:14 10° NNE 19:30:06 49° ESE 19:33:24 13° S
Cosmos 2322 Rocket 3.3 19:25:07 10° NNW 19:30:26 38° NE 19:35:42 10° ESE
Cosmos 2237 4.5 19:25:09 10° NNW 19:30:51 67° NE 19:36:07 12° SE
BlueWalker 3 3.7 19:32:11 10° WSW 19:34:33 16° SW 19:36:16 13° S
Meteor 1-14 Rocket 4.4 19:30:27 10° NNW 19:36:03 74° W 19:41:17 12° S
Genesis I 2.9 19:34:01 10° NW 19:36:44 52° NE 19:39:01 13° ESE
Cosmos 1975 3.6 19:34:52 10° N 19:38:17 35° ENE 19:40:56 15° SE
Cosmos 1697 Rocket 4.2 19:37:29 10° NW 19:42:12 28° WSW 19:46:54 10° SSW
Ariane Rocket 4.2 19:37:39 10° SSW 19:42:19 37° W 19:47:02 10° NNW
Nadezhda 3 Rocket 4.3 19:37:18 13° SSE 19:42:41 55° E 19:48:45 10° NNE
CZ-4C R/B 3.8 19:39:40 10° NNE 19:43:08 37° E 19:45:23 18° SSE
CENTAUR R/B 3.6 19:36:48 10° NW 19:44:18 65° NNE 19:53:15 10° ESE
Cosmos 1934 Rocket 4.3 19:39:37 10° N 19:45:47 59° ENE 19:51:02 15° SSE
ATLAS 3B R/B 4.0 19:42:57 14° SSE 19:47:41 26° ESE 19:53:47 10° ENE
Cosmos 2278 4.0 19:42:09 10° NNW 19:47:47 63° NE 19:52:56 12° SE
Cosmos 1570 Rocket 4.3 19:43:18 10° SW 19:48:34 74° WNW 19:53:53 10° NNE
Cosmos 1238 Rocket 2.7 19:46:09 10° SSW 19:49:46 67° WNW 19:52:58 10° N
ARIANE 5 R/B 2.9 19:46:27 16° SE 19:49:49 56° ENE 19:54:07 10° N
Cosmos 2360 Rocket 3.2 19:44:52 10° NNW 19:50:14 42° NE 19:55:34 10° ESE
Cosmos 1842 Rocket 4.3 19:48:46 17° SSE 19:51:36 36° E 19:55:33 10° NNE
Meteor 2-6 Rocket 4.4 19:48:55 10° SSW 19:54:46 82° WNW 20:00:30 10° NNE
Cosmos 2369 4.0 19:49:34 10° NW 19:55:09 60° WSW 19:59:34 16° SSE
Cosmos 1766 3.5 19:52:20 10° N 19:55:42 47° ENE 19:57:53 19° SE
Cosmos 1470 4.0 19:53:58 10° N 19:57:04 27° ENE 19:59:30 14° ESE
Cosmos 1908 3.9 19:55:38 10° N 19:58:38 33° ENE 20:00:38 17° SE
Cosmos 1536 3.5 19:56:01 10° NNW 19:59:42 46° W 20:02:41 14° SSW
SeaSat 1 3.4 19:57:02 14° S 20:00:50 37° WSW 20:05:25 10° NW
CZ-2C R/B 4.2 19:58:40 10° NNE 20:02:51 41° E 20:05:39 19° SSE
Cosmos 2221 2.9 20:01:21 10° SSW 20:05:28 58° WNW 20:09:37 10° N
Cosmos 2082 Rocket 2.3 20:00:19 11° SSW 20:05:40 58° ESE 20:11:12 10° NE
Cosmos 405 Rocket 2.3 20:02:48 10° NNW 20:06:15 87° W 20:08:21 22° SSE
Okean 1 4.0 20:08:24 10° SSW 20:11:58 46° WNW 20:15:31 10° N
COBE Rocket 4.0 20:11:54 10° NNE 20:17:01 88° WNW 20:21:35 13° SSW
Meteor 1-10 Rocket 4.3 20:11:55 13° S 20:17:13 86° ESE 20:23:04 10° NNE
Cosmos 773 Rocket 4.2 20:13:03 10° SW 20:18:11 73° WNW 20:23:20 10° NNE
Okean 3 Rocket 3.5 20:14:26 10° NNW 20:18:52 89° W 20:21:53 20° S
Cosmos 1674 2.3 20:18:53 21° SW 20:20:01 41° WNW 20:22:08 10° N
COSMOS 2406 3.5 20:17:11 16° S 20:21:36 51° ESE 20:27:07 10° NE
Landsat 5 4.0 20:17:43 10° NNE 20:21:44 45° E 20:24:14 21° SSE
Cosmos 1766 Rocket 4.4 20:17:41 10° NNW 20:21:53 44° W 20:25:10 15° SSW
NOSS 3-2 (A) 4.4 20:16:04 10° NW 20:22:37 62° NNE 20:30:42 10° ESE
ISS -1.6 20:21:46 10° WSW 20:23:18 13° SW 20:23:18 13° SW
BREEZE-M R/B 4.3 20:15:44 10° W 20:25:03 30° SW 20:27:31 19° S
USA 59 Rocket 0.1 20:24:31 26° SSE 20:25:11 28° SE 20:27:48 10° ENE
Cosmos 220 Rocket 4.2 20:21:50 10° SW 20:25:54 67° WNW 20:29:57 10° NNE
Cosmos 2084 Rocket 3.4 20:21:55 10° SW 20:26:12 85° NW 20:30:26 10° NE
NOSS 3-1 (C) 3.4 20:23:07 10° WSW 20:28:13 75° NW 20:34:40 10° NE
ARIANE 6 FM1 Upper Stage 3.6 20:24:30 10° W 20:28:25 49° NNW 20:32:25 10° NE
Cosmos 2333 Rocket 2.4 20:23:19 10° NNW 20:29:06 76° NE 20:33:55 15° SE
Cosmos 1842 4.0 20:29:20 22° SE 20:30:54 33° E 20:34:03 10° NNE
Cosmos 1833 Rocket 4.1 20:28:59 10° WSW 20:34:18 40° NW 20:39:38 10° NNE
NOSS 2-1 (E) 3.6 20:35:16 27° SSE 20:36:04 31° SE 20:38:48 10° ENE
MetOp-A 4.3 20:32:58 19° S 20:36:39 59° WSW 20:41:47 10° NNW
Meteor 2-13 Rocket 4.4 20:35:04 17° S 20:39:59 84° E 20:46:09 10° NNE
Cosmos 1455 4.2 20:40:46 10° NE 20:41:56 12° ENE 20:43:06 10° E
Cosmos 1300 3.5 20:40:32 10° N 20:43:25 31° ENE 20:45:10 18° ESE
Cosmos 1151 Rocket 3.8 20:42:48 21° SSE 20:45:08 39° E 20:49:05 10° NNE
ALOS 2 2.6 20:42:21 22° SSE 20:45:11 86° WSW 20:49:37 10° NNW
Cosmos 2219 Rocket 2.8 20:39:43 10° NNW 20:45:16 55° NE 20:50:47 10° SE
Cosmos 2333 4.4 20:41:08 10° NNW 20:46:50 69° NE 20:51:55 13° SE
USA 234 3.3 20:44:58 10° ENE 20:51:33 89° NNW 20:58:07 10° WSW
NOSS 2-1 (D) 2.9 20:50:18 26° SSW 20:51:41 47° SE 20:54:35 10° ENE
Meteor 2-4 Rocket 3.9 20:48:50 20° S 20:52:51 68° E 20:58:40 10° NNE
Meteor 1-27 Rocket 3.8 20:48:32 16° SSW 20:53:04 80° WNW 20:58:39 10° NNE
Cosmos 1980 Rocket 4.1 20:49:59 10° WNW 20:53:34 18° W 20:57:09 10° SW
NOSS 3-1 (A) 3.2 20:52:39 10° SW 20:57:44 87° NW 21:04:08 10° NE
Sich 1 3.2 20:55:10 10° NNW 20:59:23 61° W 21:01:52 23° S
ATLAS CENTAUR R/B 3.4 20:57:00 10° W 21:00:23 29° NNW 21:03:49 10° NE
Cosmos 1371 Rocket 4.4 20:55:18 10° NNW 21:00:39 64° ENE 21:05:13 14° SE
CZ-2C R/B 4.3 20:56:28 10° ESE 21:00:46 27° NE 21:05:04 10° N
BREEZE-M DEB (TANK) 3.9 20:53:11 10° W 21:03:11 35° SW 21:05:28 22° SSE
SL-16 R/B 2.7 21:00:15 10° NW 21:05:41 48° WSW 21:09:15 21° S
Cosmos 2056 Rocket 3.7 21:01:00 10° NNW 21:06:21 70° ENE 21:10:41 15° SE
PSLV R/B 3.8 21:02:57 10° NNE 21:07:05 55° E 21:09:23 24° S
Genesis I 4.1 21:07:41 10° WNW 21:09:42 19° WSW 21:09:42 19° WSW
Cosmos 1624 Rocket 4.2 21:05:11 10° NNW 21:10:25 72° ENE 21:14:39 16° SE
NOSS 2-1 (C) 2.5 21:09:43 22° SW 21:11:34 67° SE 21:14:31 10° NE
Cosmos 1975 4.2 21:10:26 10° NNW 21:13:32 26° W 21:15:35 16° SW
Cosmos 1500 Rocket 3.9 21:09:44 10° NNW 21:14:00 54° W 21:16:34 22° SSW
Cosmos 1538 Rocket 3.9 21:10:27 19° SSW 21:14:12 79° ESE 21:19:23 10° NNE
Cosmos 2322 Rocket 2.3 21:09:12 10° NW 21:14:49 63° WSW 21:18:38 21° SSE
NOSS 3-2 (C) 4.4 21:09:28 10° NW 21:16:04 62° NNE 21:24:11 10° ESE
Exosat Rocket 3.9 21:11:19 10° NW 21:16:17 50° WSW 21:19:21 22° S
Cosmos 1459 Rocket 4.4 21:11:32 10° N 21:17:34 58° ENE 21:22:37 15° SSE
H-2A R/B 3.6 21:15:01 12° SE 21:18:16 34° ENE 21:21:46 10° N
Cosmos 1707 2.5 21:18:01 26° SSW 21:19:44 69° WNW 21:23:06 10° N
COSMOS 2428 3.7 21:14:34 10° NNW 21:20:07 47° NE 21:25:37 10° ESE
Cosmos 1633 Rocket 3.5 21:16:34 10° N 21:20:53 55° ENE 21:23:51 19° SSE
Geosat FO 4.1 21:21:06 30° SSE 21:22:25 71° SW 21:25:28 10° NW
Cosmos 1408 Rocket 4.4 21:18:48 10° NNW 21:22:51 38° W 21:25:23 19° SSW
Cosmos 44 Rocket 4.1 21:18:37 10° NW 21:23:16 50° NNE 21:28:00 10° ESE
Meteor 2-10 Rocket 4.0 21:19:49 10° NNW 21:25:32 70° ENE 21:30:04 17° SSE
ARIANE 5 R/B 4.2 21:23:51 14° SW 21:26:29 23° W 21:30:01 10° NW
Cosmos 1066 Rocket 4.3 21:23:03 21° S 21:26:57 79° ESE 21:32:45 10° NNE
Cosmos 1805 Rocket 4.3 21:25:49 10° NNW 21:30:00 41° W 21:32:35 20° SSW
Cosmos 1470 3.7 21:28:30 10° NNW 21:31:44 32° W 21:33:25 21° SW
Cosmos 2173 Rocket 4.2 21:25:52 10° N 21:32:16 75° ENE 21:37:12 17° SSE
Cosmos 2360 Rocket 2.4 21:28:57 10° NW 21:34:25 54° WSW 21:38:04 21° S
CENTAUR R/B 3.3 21:27:26 10° NW 21:35:20 65° SW 21:44:23 10° SSE
Meteor 1-18 Rocket 4.3 21:32:07 20° SSW 21:36:18 87° WNW 21:42:15 10° NNE
GP-B 3.1 21:32:15 10° N 21:36:39 79° W 21:39:19 23° S
ATLAS 3B R/B 3.0 21:30:06 11° SW 21:37:25 75° SE 21:45:18 10° NE
USA 229 DEB 3.7 21:33:24 18° SSW 21:37:58 58° SE 21:44:43 10° NE
USA 229 3.7 21:33:32 18° SSW 21:38:04 57° SE 21:44:48 10° NE
ASTEX 1 3.4 21:38:30 10° N 21:43:28 87° WNW 21:46:45 22° S
Spot 1 4.4 21:40:15 10° NNE 21:44:27 62° WNW 21:47:33 19° SW
GEOS 3 Rocket 3.5 21:41:33 10° SE 21:46:41 84° SW 21:51:53 10° NW
Cosmos 1758 3.7 21:43:04 10° N 21:46:52 56° ENE 21:49:25 19° SSE
Cosmos 1328 Rocket 3.8 21:46:16 23° SSE 21:48:49 58° E 21:53:05 10° NNE
Cosmos 2082 Rocket 3.4 21:44:43 10° WSW 21:50:00 41° NW 21:55:21 10° NNE
In-Cosmos 22 4.5 21:49:28 20° S 21:53:27 64° E 21:59:10 10° NNE
COSMOS 2455 4.5 21:49:27 10° NW 21:55:02 37° NNE 22:00:36 10° E
Cosmos 2112 Rocket 4.2 22:00:57 21° S 22:04:25 63° ESE 22:09:36 10° NNE
Cosmos 2237 Rocket 3.3 22:00:09 10° NNW 22:05:34 45° NE 22:10:59 10° ESE
COSMOS 2406 4.2 22:00:34 10° WSW 22:06:02 45° NW 22:11:32 10° NNE
NOSS 2-2 (D) 3.9 22:08:47 10° NW 22:12:15 59° NNE 22:16:47 10° ESE
Cosmos 2061 Rocket 4.4 22:06:14 10° N 22:12:40 66° ENE 22:18:49 11° SSE
Cosmos 2333 Rocket 3.4 22:08:10 10° NW 22:12:54 27° WSW 22:15:53 18° SSW
NOSS 3-2 (A) 4.0 22:06:47 10° NW 22:13:46 64° SW 22:22:13 10° SSE
USA 59 Rocket 0.4 22:11:08 10° W 22:14:02 40° NNW 22:16:54 10° NE
Cosmos 1455 1.6 22:11:43 10° NNW 22:14:30 54° W 22:15:31 32° SSW
Cosmos 1300 3.9 22:14:08 10° NW 22:16:37 21° W 22:17:48 17° WSW
Cosmos 2322 3.7 22:14:35 10° NW 22:20:18 78° WSW 22:25:59 10° SSE
SL-14 R/B 3.2 22:18:45 23° S 22:21:04 78° E 22:24:58 10° NNE
Cosmos 1953 3.5 22:18:27 10° N 22:21:51 34° ENE 22:25:15 10° SE
Cosmos 1666 Rocket 4.4 22:18:19 10° NNW 22:22:21 38° W 22:24:54 20° SSW
Cosmos 1151 Rocket 4.3 22:19:28 13° SW 22:22:38 30° WNW 22:26:24 10° N
NOSS 2-2 (C) 3.3 22:19:37 10° NW 22:23:15 87° SW 22:28:10 10° SE
Cosmos 1110 Rocket 4.0 22:18:07 10° NNW 22:23:28 84° WSW 22:28:27 12° SSE
NOSS 2-1 (E) 3.9 22:22:12 10° W 22:25:09 39° NNW 22:28:04 10° NE
Cosmos 1452 Rocket 3.5 22:22:25 10° NNW 22:27:42 89° ENE 22:32:57 10° SSE
Cosmos 1437 Rocket 4.1 22:25:52 13° SE 22:28:21 26° E 22:31:20 10° NE
Meteor 1-13 Rocket 4.5 22:24:25 18° S 22:28:55 73° E 22:34:53 10° NNE
Cosmos 2219 Rocket 2.8 22:23:55 10° NW 22:29:05 39° WSW 22:32:40 18° SSW
Cosmos 494 Rocket 4.0 22:27:54 19° SSW 22:31:31 70° ESE 22:36:40 10° NNE
Cosmos 923 Rocket 4.4 22:27:15 15° SW 22:31:40 62° WNW 22:36:58 10° NNE
USA 234 3.4 22:28:03 10° E 22:34:36 83° N 22:41:10 10° W
IRIDIUM 114 4.5 22:31:47 16° S 22:35:57 72° E 22:41:11 10° N
ATLAS CENTAUR R/B 4.0 22:34:25 10° NW 22:37:30 22° N 22:40:35 10° NE
Landsat 4 4.3 22:38:50 22° SW 22:39:51 27° W 22:42:26 10° NW
CZ-2C R/B 2.6 22:36:30 16° S 22:40:39 68° WSW 22:45:50 10° NNW
NOSS 2-1 (D) 4.5 22:38:03 10° W 22:40:49 30° NNW 22:43:34 10° NE
SL-16 R/B 4.1 22:35:53 10° NNW 22:41:01 33° NE 22:46:07 10° E
GRACE-FO 1 4.5 22:38:57 22° S 22:41:09 75° W 22:44:43 10° N
GRACE-FO 2 4.5 22:39:22 22° S 22:41:34 75° W 22:45:08 10° N
SL-24 R/B - RUBIN 2 4.4 22:37:05 10° SW 22:43:21 78° NW 22:48:58 10° NE
Cosmos 2016 Rocket 4.1 22:37:25 10° NNW 22:43:29 63° W 22:48:30 16° S
Cosmos 1048 Rocket 4.3 22:39:54 17° S 22:43:39 55° ESE 22:48:39 10° NE
Cosmos 1680 Rocket 3.8 22:39:24 15° SW 22:43:41 65° WNW 22:48:54 10° NNE
IRIDIUM 103 4.4 22:40:55 16° S 22:45:06 83° E 22:50:22 10° N
Cosmos 1833 4.4 22:42:21 15° SW 22:47:13 78° NW 22:53:03 10° NNE
Cosmos 2297 Rocket 3.7 22:44:26 10° SSE 22:48:59 26° ESE 22:53:35 10° NE
Cosmos 1470 Rocket 4.4 22:46:25 10° NNW 22:50:22 36° W 22:53:03 18° SSW
H-2A R/B 3.2 22:50:24 19° SSW 22:52:38 33° W 22:56:11 10° NNW
Cosmos 1331 Rocket 4.2 22:49:30 10° NW 22:54:35 55° WSW 22:59:06 13° S
Cosmos 2322 Rocket 4.1 22:54:59 10° WNW 22:57:45 14° W 23:00:24 10° SW
Cosmos 1302 Rocket 4.0 22:53:10 10° NNW 22:58:25 85° ENE 23:03:39 10° SSE
Aureole 3 Rocket 4.1 22:54:29 10° N 22:59:25 46° ENE 23:03:04 10° SE
Cosmos 1933 Rocket 3.9 22:57:43 10° NNW 23:02:03 53° W 23:05:26 16° SSW
IRIDIUM 106 4.4 22:59:11 16° SSW 23:03:25 74° W 23:08:40 10° N
COSMOS 2428 3.0 22:58:57 10° NW 23:04:26 49° WSW 23:09:54 10° S
Cosmos 44 Rocket 3.5 23:00:08 10° NW 23:04:43 47° SW 23:09:24 10° SSE
NOSS 3-2 (C) 4.0 23:00:15 10° NW 23:07:15 63° SW 23:15:41 10° SSE
SL-16 R/B 4.2 23:03:41 10° ESE 23:09:09 35° NE 23:14:41 10° N
Cosmos 2292 Rocket 4.3 23:06:33 11° S 23:11:56 60° E 23:16:13 10° NNE
Cosmos 1980 3.7 23:07:04 10° NW 23:12:46 79° WSW 23:18:26 10° SSE
Cosmos 2227 Rocket 4.1 23:10:26 10° SSE 23:14:25 20° E 23:18:27 10° NE
Cosmos 1869 Rocket 3.7 23:10:13 10° NNW 23:14:37 59° W 23:18:29 13° S
IDEFIX/ARIANE 42P 2.9 23:09:30 10° NNE 23:14:44 61° ESE 23:19:43 11° S
USA 238 DEB 4.0 23:08:39 10° NW 23:15:50 89° NE 23:23:43 10° SE
USA 238 4.0 23:08:46 10° NW 23:15:56 88° NE 23:23:50 10° SE
Cosmos 2360 Rocket 4.2 23:15:25 10° WNW 23:17:10 11° W 23:18:55 10° WSW
Cosmos 1515 Rocket 4.1 23:14:53 15° SW 23:18:18 48° WNW 23:22:34 10° N
NOSS 0 Rocket 4.2 23:13:31 10° NW 23:19:34 52° WSW 23:25:33 10° S
Resurs 1-4 Rocket 3.3 23:15:33 10° NNE 23:20:24 36° E 23:25:12 10° SSE
Meteor 1-12 Rocket 4.5 23:15:01 10° NNW 23:20:33 56° W 23:25:58 11° S
CENTAUR R/B 4.3 23:18:49 10° WNW 23:25:05 24° WSW 23:31:24 11° SSW
CZ-2C R/B 3.6 23:21:58 10° NNE 23:27:40 63° WNW 23:32:58 12° SW
Okean 2 3.7 23:24:22 10° S 23:28:09 59° E 23:32:03 10° NNE
ATLAS 3B R/B 3.7 23:21:07 10° W 23:28:41 57° NNW 23:36:30 10° ENE
USA 229 DEB 4.2 23:22:40 10° WSW 23:28:59 61° NNW 23:36:08 10° NE
USA 229 4.2 23:22:45 10° WSW 23:29:04 61° NNW 23:36:12 10° NE
H-2A R/B 2.3 23:25:10 10° NNE 23:29:17 61° ESE 23:33:14 10° S
Meteor 1-21 4.2 23:24:56 13° SSW 23:30:04 83° WNW 23:35:46 10° NNE
NOSS 2-2 (E) 3.7 23:29:58 10° WNW 23:33:36 49° SW 23:38:29 10° SSE
NPP 3.8 23:31:49 10° NNE 23:37:16 77° ESE 23:42:40 10° SSW
Cosmos 1733 Rocket 3.1 23:33:24 10° NNW 23:37:51 82° W 23:42:16 10° S
Cosmos 1992 Rocket 4.0 23:34:16 10° NNW 23:39:30 84° WSW 23:44:42 10° SSE
Cosmos 614 Rocket 4.4 23:34:34 10° S 23:39:37 60° ESE 23:44:44 10° NNE
SAR-Lupe-3 4.0 23:38:12 10° SSE 23:41:09 84° WSW 23:44:07 10° NNW
COSMOS 2455 2.9 23:35:35 10° NW 23:41:39 89° NE 23:47:42 10° SE
Lacrosse 4 Rocket 3.3 23:41:33 10° NNW 23:45:20 35° NE 23:49:10 10° ESE
ADEOS II 3.3 23:40:35 10° NNE 23:45:29 38° E 23:50:21 10° SSE
GENESIS II 3.4 23:42:35 10° NW 23:45:31 60° SW 23:48:28 10° SE
Cosmos 1862 Rocket 4.0 23:41:49 10° S 23:46:11 62° E 23:50:36 10° NNE
Cosmos 2228 Rocket 3.6 23:43:11 10° S 23:47:40 62° E 23:52:11 10° NNE
ARIANE 6 FM1 Upper Stage 3.6 23:43:59 10° NW 23:48:00 53° NNE 23:52:06 10° ESE
Cosmos 1703 3.4 23:44:57 10° S 23:48:21 58° E 23:51:47 10° NNE
Cosmos 2237 Rocket 2.4 23:44:18 10° NW 23:49:45 51° WSW 23:55:12 10° S
ALOS 3.5 23:45:39 10° NNE 23:49:53 36° E 23:54:06 10° SSE
USA 281 3.7 23:46:20 10° NE 23:52:48 55° ESE 23:59:13 10° S
CZ-2D R/B 2.7 23:48:14 10° NNE 23:53:39 59° ESE 23:59:02 10° S
